When you browse on this site, cookies collect data to enhance your experience and personalize the content and advertising you see.
Visit our Privacy Policy to learn more. By continuing to use the site, you agree to this use of cookies and data.
  • In Hungary
  • List of Countries
  • For 7 days
  • Water Temperature
  • Weather Map
  • News
  • Weather Widgets
  • user-avatar
    Login

    Hourly Weather Kuharevo

    Today, 18 September, Wednesday

    Time Temperature Precipitation Wind Pressure Humidity
    00:00 +6°C° 0.2 mm 1 mps 731 mmHg 95%
    01:00 +7°C° 0.2 mm 1 mps 731 mmHg 95%
    02:00 +7°C° 0.2 mm 1 mps 731 mmHg 94%
    03:00 +7°C° 0.9 mm 1 mps 731 mmHg 95%
    04:00 +7°C° 0.9 mm 1 mps 731 mmHg 96%
    05:00 +6°C° 0.9 mm 2 mps 730 mmHg 97%
    06:00 +6°C° 0.6 mm 2 mps 731 mmHg 96%
    07:00 +6°C° 0.6 mm 2 mps 731 mmHg 96%
    08:00 +6°C° 0.6 mm 2 mps 731 mmHg 95%
    09:00 +7°C° 0.1 mm 2 mps 731 mmHg 93%
    10:00 +8°C° 0.1 mm 2 mps 732 mmHg 91%
    11:00 +8°C° 0.1 mm 2 mps 732 mmHg 89%
    12:00 +9°C° 0.3 mm 2 mps 733 mmHg 86%
    13:00 +10°C° 0.3 mm 2 mps 733 mmHg 84%
    14:00 +10°C° 0.3 mm 2 mps 733 mmHg 81%
    15:00 +10°C° 0.4 mm 2 mps 734 mmHg 84%
    16:00 +10°C° 0.4 mm 2 mps 734 mmHg 86%
    17:00 +9°C° 0.4 mm 2 mps 735 mmHg 89%
    18:00 +8°C° 0 mm 2 mps 735 mmHg 91%
    19:00 +7°C° 0 mm 2 mps 736 mmHg 93%
    20:00 +6°C° 0 mm 2 mps 736 mmHg 95%
    21:00 +6°C° 0 mm 2 mps 737 mmHg 96%
    22:00 +6°C° 0 mm 2 mps 737 mmHg 97%
    23:00 +5°C° 0 mm 2 mps 738 mmHg 98%

    Tomorrow, 19 September, Thursday

    Time Temperature Precipitation Wind Pressure Humidity
    00:00 +5°C° 0 mm 2 mps 739 mmHg 98%
    01:00 +5°C° 0 mm 2 mps 739 mmHg 98%
    02:00 +4°C° 0 mm 2 mps 739 mmHg 98%
    03:00 +4°C° 0 mm 2 mps 740 mmHg 97%
    04:00 +4°C° 0 mm 2 mps 740 mmHg 97%
    05:00 +4°C° 0 mm 2 mps 741 mmHg 96%
    06:00 +5°C° 0 mm 2 mps 741 mmHg 94%
    07:00 +5°C° 0 mm 2 mps 742 mmHg 91%
    08:00 +5°C° 0 mm 2 mps 742 mmHg 88%
    09:00 +7°C° 0 mm 2 mps 743 mmHg 81%
    10:00 +8°C° 0 mm 2 mps 743 mmHg 73%
    11:00 +9°C° 0 mm 2 mps 743 mmHg 65%
    12:00 +9°C° 0.1 mm 2 mps 743 mmHg 64%
    13:00 +10°C° 0.1 mm 2 mps 743 mmHg 63%
    14:00 +10°C° 0.1 mm 2 mps 743 mmHg 63%
    15:00 +10°C° 0.1 mm 2 mps 743 mmHg 67%
    16:00 +10°C° 0.1 mm 1 mps 743 mmHg 72%
    17:00 +10°C° 0.1 mm 1 mps 743 mmHg 76%
    18:00 +9°C° 0 mm 1 mps 743 mmHg 79%
    19:00 +8°C° 0 mm 1 mps 743 mmHg 81%
    20:00 +8°C° 0 mm 1 mps 743 mmHg 83%
    21:00 +8°C° 0.4 mm 1 mps 743 mmHg 86%
    22:00 +7°C° 0.4 mm 1 mps 743 mmHg 89%
    23:00 +7°C° 0.4 mm 1 mps 743 mmHg 92%

    Day after tomorrow, 20 September, Friday

    Time Temperature Precipitation Wind Pressure Humidity
    00:00 +6°C° 1.5 mm 2 mps 742 mmHg 93%
    01:00 +6°C° 1.5 mm 2 mps 742 mmHg 95%
    02:00 +5°C° 1.5 mm 2 mps 742 mmHg 96%
    03:00 +4°C° 1.1 mm 3 mps 742 mmHg 96%
    04:00 +3°C° 1.1 mm 3 mps 742 mmHg 96%
    05:00 +3°C° 1.1 mm 3 mps 742 mmHg 96%
    06:00 +3°C° 0.1 mm 3 mps 742 mmHg 95%
    07:00 +3°C° 0.1 mm 3 mps 743 mmHg 94%
    08:00 +3°C° 0.1 mm 3 mps 743 mmHg 93%
    09:00 +4°C° 0 mm 3 mps 743 mmHg 88%
    10:00 +5°C° 0 mm 4 mps 744 mmHg 82%
    11:00 +6°C° 0 mm 4 mps 744 mmHg 77%
    12:00 +7°C° 0.1 mm 4 mps 745 mmHg 72%
    13:00 +8°C° 0.1 mm 4 mps 745 mmHg 67%
    14:00 +8°C° 0.1 mm 4 mps 745 mmHg 62%
    15:00 +9°C° 0.1 mm 3 mps 746 mmHg 65%
    16:00 +8°C° 0.1 mm 2 mps 746 mmHg 68%
    17:00 +8°C° 0.1 mm 2 mps 746 mmHg 72%
    18:00 +7°C° 0 mm 2 mps 747 mmHg 77%
    19:00 +5°C° 0 mm 2 mps 747 mmHg 82%
    20:00 +4°C° 0 mm 2 mps 748 mmHg 87%
    21:00 +3°C° 0 mm 2 mps 748 mmHg 89%
    22:00 +3°C° 0 mm 2 mps 748 mmHg 92%
    23:00 +2°C° 0 mm 2 mps 749 mmHg 94%

    21 September, Saturday

    Time Temperature Precipitation Wind Pressure Humidity
    00:00 +2°C° 0 mm 2 mps 749 mmHg 95%
    01:00 +2°C° 0 mm 1 mps 749 mmHg 95%
    02:00 +2°C° 0 mm 1 mps 750 mmHg 96%
    03:00 +2°C° 0 mm 1 mps 750 mmHg 95%
    04:00 +2°C° 0 mm 1 mps 750 mmHg 95%
    05:00 +2°C° 0 mm 1 mps 750 mmHg 95%
    06:00 +3°C° 0 mm 1 mps 750 mmHg 89%
    07:00 +3°C° 0 mm 2 mps 750 mmHg 83%
    08:00 +4°C° 0 mm 2 mps 750 mmHg 77%
    09:00 +5°C° 0 mm 2 mps 750 mmHg 73%
    10:00 +5°C° 0 mm 3 mps 749 mmHg 70%
    11:00 +7°C° 0 mm 3 mps 749 mmHg 66%
    12:00 +6°C° 0.2 mm 4 mps 749 mmHg 75%
    13:00 +5°C° 0.2 mm 4 mps 748 mmHg 84%
    14:00 +4°C° 0.2 mm 4 mps 748 mmHg 93%
    15:00 +4°C° 0.5 mm 4 mps 747 mmHg 94%
    16:00 +5°C° 0.5 mm 4 mps 746 mmHg 95%
    17:00 +5°C° 0.5 mm 5 mps 745 mmHg 96%
    18:00 +6°C° 0.7 mm 5 mps 745 mmHg 96%
    19:00 +7°C° 0.7 mm 5 mps 744 mmHg 96%
    20:00 +8°C° 0.7 mm 5 mps 744 mmHg 96%
    21:00 +9°C° 0.1 mm 5 mps 744 mmHg 95%
    22:00 +9°C° 0.1 mm 5 mps 743 mmHg 94%
    23:00 +9°C° 0.1 mm 5 mps 743 mmHg 93%

    22 September, Sunday

    Time Temperature Precipitation Wind Pressure Humidity
    00:00 +9°C° 0 mm 5 mps 743 mmHg 93%
    01:00 +9°C° 0 mm 6 mps 743 mmHg 93%
    02:00 +9°C° 0 mm 6 mps 743 mmHg 92%
    03:00 +9°C° 0 mm 6 mps 742 mmHg 92%
    04:00 +10°C° 0 mm 6 mps 742 mmHg 91%
    05:00 +10°C° 0 mm 6 mps 742 mmHg 90%
    06:00 +10°C° 0 mm 6 mps 742 mmHg 90%
    07:00 +10°C° 0 mm 6 mps 742 mmHg 89%
    08:00 +10°C° 0 mm 6 mps 742 mmHg 88%
    09:00 +10°C° 0.1 mm 6 mps 743 mmHg 80%
    10:00 +10°C° 0.1 mm 6 mps 743 mmHg 72%
    11:00 +10°C° 0.1 mm 6 mps 744 mmHg 64%
    12:00 +10°C° 0 mm 6 mps 744 mmHg 57%
    13:00 +10°C° 0 mm 6 mps 744 mmHg 50%
    14:00 +10°C° 0 mm 6 mps 745 mmHg 42%
    15:00 +10°C° 0 mm 5 mps 745 mmHg 48%
    16:00 +10°C° 0 mm 4 mps 746 mmHg 53%
    17:00 +9°C° 0 mm 3 mps 746 mmHg 58%
    18:00 +7°C° 0 mm 3 mps 746 mmHg 63%
    19:00 +5°C° 0 mm 3 mps 747 mmHg 68%
    20:00 +4°C° 0 mm 2 mps 747 mmHg 74%
    21:00 +4°C° 0 mm 2 mps 748 mmHg 76%
    22:00 +3°C° 0 mm 2 mps 748 mmHg 79%
    23:00 +3°C° 0 mm 1 mps 748 mmHg 82%

    23 September, Monday

    Time Temperature Precipitation Wind Pressure Humidity
    00:00 +3°C° 0 mm 1 mps 748 mmHg 82%
    01:00 +3°C° 0 mm 1 mps 749 mmHg 83%
    02:00 +2°C° 0 mm 1 mps 749 mmHg 84%
    03:00 +1°C° 0 mm 0 mps 749 mmHg 84%
    04:00 +1°C° 0 mm 0 mps 749 mmHg 84%
    05:00 +1°C° 0 mm 0 mps 749 mmHg 85%
    06:00 +2°C° 0 mm 0 mps 749 mmHg 80%
    07:00 +3°C° 0 mm 0 mps 749 mmHg 74%
    08:00 +5°C° 0 mm 0 mps 749 mmHg 69%
    09:00 +7°C° 0 mm 1 mps 749 mmHg 65%
    10:00 +8°C° 0 mm 1 mps 749 mmHg 60%
    11:00 +9°C° 0 mm 1 mps 749 mmHg 55%
    12:00 +10°C° 0 mm 1 mps 749 mmHg 54%
    13:00 +10°C° 0 mm 1 mps 748 mmHg 53%
    14:00 +10°C° 0 mm 1 mps 748 mmHg 52%
    15:00 +10°C° 0 mm 1 mps 748 mmHg 56%
    16:00 +9°C° 0 mm 1 mps 748 mmHg 60%
    17:00 +9°C° 0 mm 1 mps 747 mmHg 64%
    18:00 +7°C° 0 mm 2 mps 747 mmHg 67%
    19:00 +6°C° 0 mm 2 mps 747 mmHg 70%
    20:00 +6°C° 0 mm 2 mps 747 mmHg 73%
    21:00 +5°C° 0.1 mm 2 mps 747 mmHg 75%
    22:00 +5°C° 0.1 mm 2 mps 747 mmHg 77%
    23:00 +6°C° 0.1 mm 1 mps 747 mmHg 79%
    Show more